Regional Weather Roundup
Issued by NWS Columbia, SC

Home | Current Version | Previous Version | Text Only | Print | Product List | Glossary On
Versions: 1 2 3 4 5 6 7 8 9 10 11 12 13 14 15 16 17 18 19 20 21 22 23 24 25 26 27 28 29 30 31 32 33 34 35 36 37 38 39 40 41 42 43 44 45 46 47 48 49 50
000
ASUS42 KCAE 220810
RWRCAE
REGIONAL WEATHER ROUNDUP
NATIONAL WEATHER SERVICE COLUMBIA SC
300 AM EST SUN JAN 22 2017

NOTE: "FAIR" INDICATES FEW OR NO CLOUDS BELOW 12,000 FEET WITH NO
SIGNIFICANT WEATHER AND/OR OBSTRUCTIONS TO VISIBILITY.

NOT ALL STATIONS ARE QUALITY CONTROLLED BY THE NATIONAL
WEATHER SERVICE. USE DATA WITH CAUTION...ESPECIALLY
DEWPOINT OBSERVATIONS.

SCZ001>056-GAZ040-063>065-077-220900-
...UPSTATE SOUTH CAROLINA...

CITY           SKY/WX    TMP DP  RH WIND       PRES   REMARKS
ANDERSON       FOG       56  55  97 CALM      29.64F VSB 1/2
LIBERTY        CLOUDY    55  54  99 CALM      29.64S FOG
SPARTANBURG    FOG       54  52  94 N7        29.62F VSB 1/2
CLEMSON        FOG       57  55  93 S3        29.65S VSB 1/2
GREENVILLE     MOCLDY    56  53  90 N3        29.64F
GREENWOOD      CLOUDY    56  55  97 S7        29.68R FOG
GREER          CLOUDY    54  53  97 N7        29.61F FOG
ROCK HILL      CLOUDY    55  54  96 N7        29.65F FOG
CHESTER        CLOUDY    54  54 100 N5        29.66F FOG


...CENTRAL SOUTH CAROLINA...

CITY           SKY/WX    TMP DP  RH WIND       PRES   REMARKS
COLUMBIA APT   CLOUDY    62  57  83 SW6       29.68R
COLUMBIA OWENS CLOUDY    62  57  83 S5        29.69S
MCENTIRE ANGB  CLOUDY    60  57  88 S6        29.69S
ORANGEBURG     CLOUDY    60  58  92 W6        29.69F
SUMTER SHAW    CLOUDY    61  56  84 SW7       29.67F
NEWBERRY       CLOUDY    55  55 100 S3        29.71R
AIKEN          LGT RAIN  59  55  88 SW8       29.74R
BARNWELL       RAIN      61  61 100 CALM      29.70F
MANNING        PTSUNNY   59  55  88 CALM      29.69F
CAMDEN           N/A     61  57  88 S3        29.68S
LANCASTER      CLOUDY    57  57 100 CALM      29.66F
WINNSBORO      CLOUDY    59  57  94 S9        29.69R


...EASTERN AND COASTAL SOUTH CAROLINA...

CITY           SKY/WX    TMP DP  RH WIND       PRES   REMARKS
MYRTLE BEACH   MOCLDY    61  55  82 W8        29.71F
N MYRTLE BCH   CLOUDY    59  58  96 W8        29.69F
CONWAY         CLOUDY    59  57  94 W5        29.70S
MARION         CLOUDY    59  55  88 SW9       29.70S
HARTSVILLE     CLOUDY    57  55  94 SW6       29.67S
FLORENCE       CLOUDY    62  58  86 SW13      29.70R
DARLINGTON     CLOUDY    60  57  89 SW6       29.68R
CHARLESTON APT LGT RAIN  62  58  86 W12       29.71R
MOUNT PLEASANT DRIZZLE   61  61 100 W9        29.71R
WALTERBORO     RAIN      61  59  94 SW6G21    29.71F
BEAUFORT       RAIN      63  61  93 SW8       29.74R FOG


...EASTERN GEORGIA...

CITY           SKY/WX    TMP DP  RH WIND       PRES   REMARKS
AUGUSTA BUSH F RAIN      62  59  90 S6        29.70R FOG
AUGUSTA DANIEL RAIN      61  57  87 CALM      29.69F FOG
THOMSON        CLOUDY    61  61 100 CALM      29.68F
WASHINGTON     LGT RAIN  61  61 100 SE8       29.62F
CLAXTON        TSTM     N/A N/A N/A NE8       29.67F VSB 3/4
SYLVANIA       CLOUDY   N/A N/A N/A S5        29.72F
STATESBORO     RAIN      63  32  31 CALM      29.67F
SAVANNAH       HVY RAIN  64  61  88 S12       29.73R FOG


...SOUTHERN NORTH CAROLINA...

CITY           SKY/WX    TMP DP  RH WIND       PRES   REMARKS
CHARLOTTE      DRIZZLE   54  53  97 NW6       29.67F
MONROE         CLOUDY    56  54  93 N3        29.66F FOG
ROCKINGHAM     CLOUDY    59  59 100 SW5       29.66R
RUTHERFORDTON  CLOUDY    52  52 100 CALM      29.67F FOG
ASHEVILLE      CLOUDY    52  50  93 E3        29.66F

$$



USA.gov is the U.S. government's official web portal to all federal, state and local government web resources and services.